[[{"header":{"parameterUnit":"m.s-1","parameterCategory":1,"la1":30.2991,"la2":30.254,"lo1":-89.0895,"lo2":-89.0444,"dy":0.0017,"dx":0.0017,"nx":28,"ny":28,"refTime":"2024-06-30T09:00:00:Z","depth":0,"parameterNumber":2,"parameterNumberName":"U-component_of_WINDS"},"data":[0,0,0,0,0,0,0,0,0,0,0,0,0,0,0,0,0,0,0,0,0,0,0,0,0,0,0,0,0,0,0,0,0,0,0,0,0,0,0,0,0,0,0,0,0,0,0,0,0,0,0,0,0,0,0,0,0,0,2.0484,2.0486,0,2.0702,2.0705,2.0707,2.0746,2.0744,2.0742,2.074,2.0969,2.0976,2.0984,0,0,0,0,0,0,0,0,0,0,0,0,0,2.0105,2.0112,2.0484,2.0487,2.0489,2.0702,2.0705,2.0708,2.0746,2.0744,2.0741,2.0739,2.0966,2.0975,2.0985,0,0,0,0,0,0,0,0,0,0,0,0,0,2.0291,2.0114,2.0483,2.0534,2.054,2.0701,2.0705,2.0708,2.0746,2.0744,2.0741,2.0738,2.0963,2.0975,2.0986,2.1113,0,0,2.1022,2.1027,0,0,0,0,0,0,0,0,2.0281,2.0305,2.0524,2.0531,2.0538,2.0694,2.0655,2.0844,2.0747,2.0668,2.074,2.0737,2.088,2.0898,2.0945,2.1124,2.1134,2.1023,2.103,2.1035,2.1038,0,0,0,0,0,0,0,2.0268,2.0296,2.057,2.0527,2.0536,2.0547,2.0571,2.0691,2.0787,2.0675,2.0678,2.0703,2.0883,2.0934,2.0951,2.1137,2.1023,2.1033,2.104,2.1045,2.1431,2.1434,0,0,0,0,0,0,2.0245,2.0285,2.0563,2.0577,2.04,2.0556,2.0582,2.0647,2.0786,2.0804,2.0705,2.0704,2.0915,2.0937,2.0959,2.1117,2.1035,2.1046,2.1053,2.1428,2.1432,2.1435,0,0,0,0,0,0,2.0237,2.027,2.0555,2.0432,2.0469,2.0566,2.0638,2.0652,2.0703,2.0809,2.0826,2.0739,2.0914,2.0943,2.1074,2.1125,2.1051,2.1062,2.1424,2.1429,2.1434,2.1433,0,0,0,0,0,0,2.0226,2.0266,2.0314,2.0433,2.0475,2.0664,2.0641,2.0659,2.0722,2.0723,2.0845,2.0863,2.0914,2.1057,2.1086,2.114,2.1071,2.142,2.1426,2.1432,2.1429,2.1437,2.1444,0,0,0,0,0,2.0212,2.0307,2.0317,2.035,2.0537,2.0667,2.0692,2.0748,2.0726,2.0776,2.0844,2.0859,2.1115,2.107,2.1103,2.1161,2.1417,2.1425,2.1432,2.1425,2.1435,2.1444,0,0,0,0,0,0,2.0194,2.0323,2.0336,2.0471,2.0558,2.0673,2.0738,2.0757,2.0853,2.0849,2.0916,2.0943,2.1071,2.113,2.1077,2.1292,2.1265,2.1279,2.1248,2.1259,2.1267,2.125,2.1081,0,0,0,0,0,2.0205,2.0299,2.0407,2.0516,2.0559,2.0641,2.07,2.0735,2.0828,2.0865,2.0943,2.1034,2.1135,2.1201,2.13,2.1438,2.1465,2.1495,2.1502,2.1508,2.1519,2.1597,2.1611,2.1459,2.1459,2.1459,0,0,2.0231,2.0313,2.0368,2.0515,2.0586,2.0682,2.0672,2.0774,2.0846,2.0882,2.101,2.107,2.1177,2.1311,2.1375,2.1364,2.1567,2.1517,2.1521,2.153,2.1606,2.162,2.1632,2.1464,2.1463,2.1463,0,0,2.0325,2.0397,2.0495,2.0566,2.0674,2.0728,2.0751,2.0864,2.0905,2.1034,2.1063,2.1151,2.1324,2.1398,2.1458,2.1581,2.1598,2.1612,2.1652,2.1726,2.1738,2.1749,2.1792,2.1807,2.1623,2.1623,2.1623,0,2.0344,2.0488,2.0544,2.0645,2.0709,2.0743,2.0844,2.0911,2.1046,2.109,2.1076,2.1293,2.1367,2.152,2.1549,2.1597,2.1627,2.1598,2.1732,2.1743,2.1754,2.1796,2.1812,2.1624,2.1624,2.1624,2.1624,0,2.0505,2.0605,2.0671,2.0798,2.087,2.0971,2.1043,2.1109,2.1138,2.1194,2.1326,2.1416,2.1533,2.1572,2.1603,2.173,2.172,2.1718,2.1692,2.1768,2.1809,2.1826,2.1625,2.1625,2.1624,2.1624,0,0,2.0594,2.075,2.0773,2.0831,2.0952,2.1031,2.1134,2.1247,2.1302,2.1394,2.1482,2.1627,2.1626,2.1695,2.1734,2.1799,2.189,2.179,2.1794,2.1805,2.2035,2.2035,2.2053,2.1902,2.1906,2.1908,2.2026,0,2.0702,2.0883,2.0937,2.109,2.1183,2.1217,2.1307,2.1391,2.1446,2.1535,2.1597,2.1698,2.1689,2.173,2.1797,2.1865,2.1937,2.1857,2.1986,2.199,2.1957,2.2074,2.2075,2.2181,2.2042,2.2045,2.2047,0,2.0853,2.0945,2.1107,2.1215,2.1256,2.1335,2.1443,2.1527,2.1624,2.166,2.1736,2.1769,2.1879,2.1847,2.1999,2.1943,2.1999,2.2041,2.2047,2.206,2.2022,2.209,2.2217,2.2232,2.2073,2.2071,2.2069,0,2.09,2.1066,2.1183,2.1232,2.1362,2.1417,2.1474,2.1568,2.1632,2.1727,2.177,2.1877,2.1936,2.2019,2.2081,2.2052,2.2228,2.2201,2.2261,2.2259,2.2296,2.2293,2.2432,2.2333,2.2333,2.2332,2.2332,0,2.1015,2.1112,2.1206,2.1279,2.1389,2.1451,2.1559,2.1618,2.1702,2.1787,2.1825,2.1905,2.1982,2.2073,2.2122,2.2241,2.2267,2.23,2.2312,2.2296,2.2292,2.2333,2.2327,2.2337,2.2336,2.2335,2.2334,0,2.1086,2.1153,2.1284,2.1395,2.1426,2.1502,2.1599,2.1671,2.1728,2.1835,2.1865,2.1954,2.2062,2.2132,2.2271,2.2305,2.2434,2.2444,2.24,2.2406,2.2461,2.2455,2.2632,2.2658,2.2542,2.2543,2.2543,0,2.1154,2.123,2.1349,2.1408,2.1465,2.156,2.1625,2.1689,2.1756,2.1872,2.1931,2.2042,2.2133,2.2306,2.2384,2.249,2.2503,2.2558,2.252,2.2501,2.2503,2.2498,2.2505,2.2564,2.2565,2.2565,2.2566,0,2.1268,2.1297,2.1389,2.1493,2.1569,2.1655,2.174,2.1787,2.1866,2.1939,2.205,2.2121,2.2262,2.2371,2.2485,2.2546,2.257,2.2578,2.2597,2.2581,2.2552,2.2568,2.2416,2.2573,2.2572,2.2572,2.2572,2.2571,2.134,2.1408,2.1502,2.1604,2.1674,2.1753,2.1826,2.1891,2.1984,2.2102,2.2135,2.225,2.2346,2.2501,2.2564,2.2656,2.265,2.2678,2.2685,2.2691,2.2691,2.2538,2.2677,2.2677,2.2677,2.2677,2.2677,0,2.1455,2.1517,2.1609,2.1727,2.1806,2.182,2.1916,2.1982,2.2082,2.2169,2.2258,2.2385,2.2492,2.2578,2.2688,2.2745,2.2759,2.2772,2.2768,2.2782,2.2691,2.2662,2.2759,2.2759,2.2759,2.2759,2.2759,2.2759,2.1524,2.164,2.168,2.1832,2.1895,2.2006,2.206,2.2133,2.2202,2.2342,2.243,2.2485,2.2572,2.2688,2.2787,2.281,2.2849,2.2859,2.2884,2.2797,2.2788,2.2779,2.2753,2.2867,2.2867,2.2968,2.2969,2.2969]},{"header":{"parameterUnit":"m.s-1","parameterCategory":1,"la1":30.2991,"la2":30.254,"lo1":-89.0895,"lo2":-89.0444,"dy":0.0017,"dx":0.0017,"nx":28,"ny":28,"refTime":"2024-06-30T09:00:00:Z","depth":0,"parameterNumber":3,"parameterNumberName":"V-component_of_WINDS"},"data":[0,0,0,0,0,0,0,0,0,0,0,0,0,0,0,0,0,0,0,0,0,0,0,0,0,0,0,0,0,0,0,0,0,0,0,0,0,0,0,0,0,0,0,0,0,0,0,0,0,0,0,0,0,0,0,0,0,0,3.9176,3.9178,0,3.9322,3.9324,3.9325,3.9288,3.9285,3.9282,3.9279,3.9418,3.9425,3.9431,0,0,0,0,0,0,0,0,0,0,0,0,0,3.8854,3.8861,3.9176,3.9178,3.918,3.9322,3.9324,3.9326,3.9288,3.9285,3.9281,3.9278,3.9416,3.9424,3.9431,0,0,0,0,0,0,0,0,0,0,0,0,0,3.8996,3.8863,3.9176,3.9178,3.918,3.9321,3.9324,3.9326,3.9289,3.9285,3.928,3.9276,3.9414,3.9423,3.9432,3.9577,0,0,3.9462,3.9466,0,0,0,0,0,0,0,0,3.8988,3.9008,3.9176,3.9178,3.9181,3.9282,3.9261,3.941,3.929,3.9247,3.9279,3.9274,3.9376,3.9388,3.9425,3.9583,3.9589,3.9462,3.9468,3.9472,3.9475,0,0,0,0,0,0,0,3.8979,3.9002,3.9233,3.9178,3.9181,3.9169,3.9184,3.9289,3.9333,3.9251,3.9248,3.9267,3.9376,3.9416,3.9428,3.9591,3.9462,3.9471,3.9477,3.948,3.9875,3.9879,0,0,0,0,0,0,3.8968,3.8994,3.9229,3.9238,3.9072,3.9178,3.9195,3.9254,3.9332,3.934,3.927,3.9264,3.9401,3.9417,3.9432,3.9607,3.9472,3.9481,3.9487,3.987,3.9876,3.9881,0,0,0,0,0,0,3.8962,3.899,3.9223,3.9115,3.9144,3.9188,3.9254,3.9259,3.9298,3.9347,3.9354,3.9303,3.9399,3.9419,3.9542,3.9611,3.9486,3.9494,3.9865,3.9872,3.9879,3.9957,0,0,0,0,0,0,3.8953,3.8988,3.9045,3.9117,3.915,3.9333,3.9258,3.9265,3.9316,3.931,3.938,3.9387,3.9397,3.9528,3.9551,3.9622,3.9502,3.9858,3.9868,3.9876,3.9949,3.9966,3.9981,0,0,0,0,0,3.8941,3.9059,3.9049,3.9077,3.9224,3.9337,3.9356,3.9368,3.9322,3.9379,3.941,3.9385,3.96,3.9541,3.9567,3.9642,3.9854,3.9865,3.9876,3.9941,3.9963,3.9981,0,0,0,0,0,0,3.8991,3.9069,3.9058,3.9203,3.9265,3.9331,3.9403,3.939,3.9463,3.9453,3.9462,3.9478,3.9603,3.9634,3.9567,3.9785,3.972,3.9736,3.9761,3.9781,3.9797,3.9787,3.951,0,0,0,0,0,3.902,3.9109,3.917,3.9293,3.9325,3.9359,3.9409,3.9413,3.9475,3.95,3.954,3.9598,3.9679,3.9731,3.9808,3.9952,3.9966,4.0016,4.0032,4.0046,4.006,4.0138,4.0161,3.9916,3.9916,3.9916,0,0,3.9078,3.9132,3.9187,3.9304,3.9352,3.9442,3.9381,3.9477,3.9543,3.9513,3.9633,3.9664,3.9729,3.9864,3.9925,3.9893,4.013,4.0059,4.0069,4.0077,4.0151,4.0174,4.0195,3.9923,3.9922,3.9921,0,0,3.9232,3.9282,3.939,3.944,3.9514,3.9536,3.9562,3.9631,3.9652,3.9773,3.9752,3.9828,3.9967,4.0015,4.0057,4.0228,4.0207,4.0252,4.0338,4.0414,4.0433,4.045,4.0511,4.0533,4.0266,4.0267,4.0267,0,3.9294,3.9432,3.9445,3.9546,3.9597,3.9577,3.9685,3.9731,3.9825,3.986,3.9824,3.9999,4.0041,4.0186,4.0228,4.0263,4.0291,4.0245,4.043,4.0447,4.0463,4.0521,4.0544,4.0272,4.0271,4.027,4.027,0,3.9505,3.9601,3.9678,3.9774,3.9834,3.9937,3.9963,4.0021,4.0019,4.0044,4.0166,4.0217,4.0304,4.0338,4.0336,4.0483,4.0462,4.0428,4.0362,4.0491,4.0546,4.0569,4.0279,4.0277,4.0276,4.0274,0,0,3.9694,3.9798,3.9826,3.987,3.995,4.0022,4.0123,4.0212,4.0261,4.0326,4.041,4.0528,4.0497,4.0545,4.0548,4.0615,4.0747,4.0573,4.0574,4.0604,4.0912,4.0938,4.0963,4.0734,4.0738,4.0741,4.0906,0,3.9855,4.0038,4.0053,4.0215,4.0303,4.0285,4.0372,4.0429,4.0455,4.053,4.0556,4.0641,4.0594,4.0623,4.0688,4.0718,4.0809,4.0706,4.0809,4.0813,4.0795,4.0992,4.102,4.1173,4.0928,4.0932,4.0934,0,4.0067,4.0143,4.0316,4.0385,4.0422,4.0501,4.0584,4.0656,4.072,4.0733,4.0788,4.0782,4.0882,4.0813,4.095,4.0879,4.0922,4.0943,4.0949,4.0959,4.0882,4.1008,4.1222,4.1246,4.0968,4.0965,4.0963,0,4.0188,4.0333,4.0456,4.0493,4.0577,4.0632,4.0669,4.0729,4.0781,4.0851,4.0885,4.0964,4.1008,4.1068,4.1083,4.1031,4.122,4.1152,4.1232,4.1232,4.1273,4.1271,4.1498,4.13,4.1299,4.1299,4.1298,0,4.0367,4.0473,4.0512,4.0587,4.0704,4.0719,4.0834,4.0866,4.092,4.0998,4.0986,4.1059,4.1074,4.1149,4.116,4.1272,4.1291,4.1303,4.1305,4.1305,4.1304,4.1334,4.1324,4.1305,4.1304,4.1303,4.1301,0,4.0522,4.0553,4.0685,4.0754,4.0774,4.0858,4.0915,4.0986,4.101,4.111,4.1133,4.117,4.1259,4.1279,4.1382,4.139,4.1523,4.1513,4.1503,4.1502,4.1582,4.1574,4.1837,4.1872,4.165,4.1652,4.1654,0,4.0635,4.0717,4.0796,4.085,4.0891,4.0977,4.1031,4.1047,4.1104,4.1183,4.1243,4.1331,4.1402,4.1543,4.1577,4.1656,4.1649,4.1735,4.166,4.1658,4.1651,4.1646,4.1654,4.175,4.1752,4.1754,4.1755,0,4.0831,4.0842,4.0923,4.101,4.1076,4.1144,4.1208,4.1252,4.1277,4.134,4.1433,4.1488,4.1596,4.1682,4.1762,4.1795,4.1779,4.1779,4.1802,4.1803,4.1794,4.1801,4.1543,4.1773,4.1771,4.177,4.1769,4.1768,4.0969,4.1041,4.1109,4.1199,4.125,4.1311,4.1382,4.1416,4.1495,4.1586,4.159,4.169,4.1749,4.1856,4.1894,4.197,4.1943,4.1976,4.1985,4.1993,4.2001,4.1782,4.1984,4.1984,4.1983,4.1983,4.1983,0,4.1164,4.1208,4.1291,4.1384,4.1455,4.1437,4.1507,4.1566,4.1656,4.1715,4.1787,4.1892,4.1976,4.2017,4.2099,4.2152,4.2147,4.2173,4.217,4.2178,4.202,4.1992,4.2176,4.2176,4.2176,4.2176,4.2176,4.2176,4.1275,4.1397,4.1416,4.1562,4.1603,4.1705,4.1747,4.1802,4.1849,4.197,4.2041,4.2068,4.2119,4.2205,4.228,4.229,4.232,4.2351,4.2357,4.2208,4.2189,4.217,4.2144,4.2357,4.2358,4.2508,4.251,4.2511]}]]